Home   Weather   47°24'N, 9°37'E   Past weeks
Flag for Switzerland

Past Weather in 47°24'N, 9°37'E, Switzerland — Yesterday and Last 2 Weeks

Now
37 °F

Clear.


Feels Like: 37 °F
Forecast: 49 / 29 °F
Wind: 2 mph from North

Location: Saint Gallen-Altenrhein

Current Time: Mar 26, 2019 at 9:59:40 pm

Latest Report: Mar 26, 2019 at 9:20 pm


Visibility: 10 mi

Pressure: 30.39 "Hg

Humidity: 70%

Dew Point: 28 °F

Location of 47°24'N, 9°37'ELocation

Past Weather in 47°24'N, 9°37'E — Graph

°F

47°24'N, 9°37'E Temperature Yesterday

Maximum temperature yesterday: 48 °F (at 3:50 am)
Minimum temperature yesterday: 36 °F (at 9:50 pm)
Average temperature yesterday: 44 °F

High & Low Weather Summary for the Past Weeks

 TemperatureHumidityPressure
High63 °F (Mar 17, 2:50 pm)100% (Mar 14, 11:20 pm)30.51 "Hg (Mar 14, 11:20 pm)
Low27 °F (Mar 20, 4:50 am)25% (Mar 23, 5:20 pm)29.68 "Hg (Mar 17, 2:20 pm)
Average43 °F70%30.18 "Hg
* Reported Mar 11 8:20 pm — Mar 26 8:50 pm, 47°24'N, 9°37'E. Weather by CustomWeather, © 2019

Note: Actual official high and low records may vary slightly from our data, if they occured in-between our weather recording intervals... More about our weather records

Advertising

47°24'N, 9°37'E Weather History for the Previous 24 Hours

Scroll right to see more
 ConditionsComfort  
Time TempWeatherWind HumidityBarometerVisibility
8:50 pm
Tue, Mar 26
39 °FClear.2 mph61%30.39 "Hg10 mi
8:20 pm37 °FClear.3 mph65%30.39 "Hg10 mi
7:50 pm37 °FClear.3 mph65%30.39 "Hg10 mi
7:20 pm39 °FClear.3 mph70%30.39 "Hg10 mi
6:50 pm39 °FClear.3 mph70%30.39 "Hg10 mi
6:20 pm45 °FPassing clouds.5 mph53%30.36 "HgN/A
5:50 pm45 °FPassing clouds.5 mph53%30.36 "HgN/A
5:20 pm46 °FPassing clouds.6 mph46%30.36 "HgN/A
4:50 pm46 °FPassing clouds.6 mph46%30.36 "HgN/A
4:20 pm46 °FPassing clouds.5 mph40%30.36 "HgN/A
3:50 pm46 °FPassing clouds.5 mph40%30.36 "HgN/A
3:20 pm46 °FPassing clouds.7 mph50%30.39 "HgN/A
2:50 pm46 °FPassing clouds.7 mph50%30.39 "HgN/A
2:20 pm43 °FPassing clouds.8 mph49%30.39 "HgN/A
12:50 pm45 °FPartly sunny.7 mph53%30.39 "HgN/A
12:20 pm43 °FScattered clouds.6 mph71%30.39 "HgN/A
11:50 am43 °FScattered clouds.6 mph71%30.39 "HgN/A
11:20 am41 °FPartly sunny.6 mph70%30.42 "HgN/A
10:50 am41 °FPartly sunny.6 mph70%30.42 "HgN/A
10:20 am41 °FPartly sunny.6 mph70%30.39 "HgN/A
9:50 am39 °FPartly sunny.6 mph81%30.39 "HgN/A
9:20 am39 °FPartly sunny.6 mph81%30.39 "HgN/A
8:50 am39 °FPartly sunny.3 mph75%30.39 "HgN/A
8:20 am39 °FPartly sunny.3 mph75%30.39 "HgN/A
7:50 am39 °FPartly sunny.3 mph75%30.36 "HgN/A
7:20 am39 °FBroken clouds.2 mph81%30.36 "HgN/A
6:50 am37 °FPartly sunny.2 mph87%30.36 "HgN/A
6:20 am37 °FPartly sunny.2 mph87%30.36 "HgN/A
5:50 am37 °FMostly cloudy.3 mph93%30.33 "HgN/A
5:20 am37 °FPartly cloudy.3 mph93%30.33 "HgN/A
4:50 am37 °FMostly cloudy.5 mph93%30.33 "HgN/A
4:20 am37 °FPassing clouds.8 mph93%30.30 "HgN/A
3:50 am36 °FOvercast.2 mph100%30.30 "HgN/A
3:20 am36 °FLight rain. Passing clouds.6 mph93%30.30 "HgN/A
2:50 am36 °FLight snow. Passing clouds.8 mph93%30.30 "HgN/A
2:20 am37 °FLight rain. Passing clouds.5 mph87%30.27 "HgN/A
1:50 am37 °FLight rain. Passing clouds.5 mph87%30.27 "HgN/A
1:20 am39 °FLight rain. Passing clouds.2 mph81%30.27 "HgN/A
12:50 am39 °FLight rain. Passing clouds.5 mph81%30.27 "HgN/A
12:20 am37 °FPartly cloudy.2 mph87%30.27 "HgN/A
11:50 pm
Mon, Mar 25
37 °FMostly cloudy.1 mph81%30.27 "HgN/A
11:20 pm37 °FPartly cloudy.2 mph81%30.27 "HgN/A
10:50 pm37 °FPassing clouds.1 mph75%30.27 "HgN/A
10:20 pm39 °FPassing clouds.No wind70%30.27 "HgN/A
9:50 pm36 °FPartly cloudy.2 mph81%30.27 "HgN/A
9:20 pm37 °FClear.1 mph75%30.27 "HgN/A
Weather by CustomWeather, © 2019

See weather overview